Regional Weather Roundup
Issued by NWS

Home | Current Version | Previous Version | Text Only | Print | Product List | Glossary Off
Versions: 1 2 3 4 5 6 7 8 9 10 11 12 13 14 15 16 17 18 19 20 21 22 23 24 25 26 27 28 29 30 31 32 33 34 35 36 37 38 39 40 41 42 43 44 45 46 47 48 49 50

000
ASUS43 KFSD 240602
RWRSD

WEATHER ROUNDUP FOR SOUTH DAKOTA
NATIONAL WEATHER SERVICE SIOUX FALLS SD
100 AM CDT SUN MAY 24 2015

NOTE: "FAIR" INDICATES FEW OR NO CLOUDS BELOW 12,000 FEET WITH NO
SIGNIFICANT WEATHER AND/OR OBSTRUCTIONS TO VISIBILITY.


SDZ001>005-009-010-012>017-240700-
NORTHWEST AND NORTH CENTRAL SOUTH DAKOTA

CITY           SKY/WX    TMP DP  RH WIND       PRES   REMARKS
FAITH            N/A     53  50  89 NE10      30.04F
MOBRIDGE       CLOUDY    57  54  89 E9        30.06S
$$

SDZ012>016-024>037-041>051-057-063-072>074-240700-
SOUTHWEST AND SOUTH CENTRAL SOUTH DAKOTA

CITY           SKY/WX    TMP DP  RH WIND       PRES   REMARKS
RAPID CTY ARPT LGT RAIN  53  52  96 E8        30.01F FOG
PIERRE         LGT RAIN  54  53  97 NE5       30.03R
CUSTER         LGT RAIN  47  45  93 NE14      30.03F FOG
ELLSWORTH AFB  LGT RAIN  53  53 100 NE8       30.01  FOG
PHILIP         LGT RAIN  55  54  96 E9        30.01F
PINE RIDGE     CLOUDY    53  50  89 E10       29.99S
WINNER         LGT RAIN  57  54  89 SE9       30.03F
$$

SDZ004>011-016>023-039-040-240700-
NORTHEAST SOUTH DAKOTA

CITY           SKY/WX    TMP DP  RH WIND       PRES   REMARKS
ABERDEEN       PTCLDY    54  49  83 N6        30.07F
WATERTOWN      MOCLDY    57  47  69 E9        30.05F
BROOKINGS      CLOUDY    59  52  77 SE6       30.07S
$$

SDZ017-020-022-023-036>040-048>070-240700-
SOUTHEAST SOUTH DAKOTA

CITY           SKY/WX    TMP DP  RH WIND       PRES   REMARKS
SIOUX FALLS    LGT RAIN  59  56  89 S5        30.06F
HURON          MOCLDY    55  52  89 E3        30.05S
CHAMBERLAIN    CLOUDY    55  55  97 E5        30.05S
MITCHELL       LGT RAIN  58  56  93 CALM      30.06R
YANKTON        CLOUDY    57  55  94 E6        30.04S
$$

ABBREVIATIONS USED IN REMARKS
   TC - TEMPERATURE IN CELSIUS
  WCI - WIND CHILL INDEX
   HX - HEAT INDEX
  VSB - VISIBILITY



USA.gov is the U.S. government's official web portal to all federal, state and local government web resources and services.